2020-032A

Last updated on Fri Jun 05 2020 00:02:03 GMT+0000 (Coordinated Universal Time)

1 45611U 20032A 20156.37009941 .00001285 00000-0 44645-4 0 9994 2 45611 35.0318 133.0953 0013427 343.4061 16.6216 15.29844594 813
UTC large
Height (km)
Speed (km/s)
/
Latitude / Longitude
Inclination (degrees)
Orbital Period (minutes)
Azimuth
Elevation
Range (km)
Doppler Factor

Next 0 passes for location: London (51.5072 / 0.1276)

Sorry there are no passes over London.